CALSPHERE 1 1 00900U 64063C 26159.80869975 .00000612 00000+0 61379-3 0 9990 2 00900 90.2237 71.5736 0025002 324.0343 103.7414 13.76614595 70274 CALSPHERE 2 1 00902U 64063E 26159.82384556 .00000032 00000+0 35168-4 0 9995 2 00902 90.2378 75.5941 0016625 250.0053 181.7252 13.52899874855132 LCS 1 1 01361U 65034C 26159.79062104 .00000015 00000+0 92781-3 0 9996 2 01361 32.1360 196.9647 0012379 92.2886 267.9029 9.89310712209058 TEMPSAT 1 1 01512U 65065E 26159.42481376 .00000030 00000+0 44486-4 0 9991 2 01512 89.9993 212.5929 0067625 273.3396 105.1090 13.33593607958881 CALSPHERE 4A 1 01520U 65065H 26159.76589300 .00000132 00000+0 23382-3 0 9997 2 01520 89.8977 122.5708 0071472 126.0737 307.7568 13.36276781961589 OPS 5712 (P/L 160) 1 02826U 67053A 26159.78997200 .00007871 00000+0 11088-2 0 9996 2 02826 69.9172 58.8765 0000922 266.2559 93.8484 14.77611117 64991 OPS 5712 (P/L 153) 1 02874U 67053H 26159.81665750 .00000018 00000+0 51289-4 0 9990 2 02874 69.9722 133.2479 0008967 222.6096 137.4315 13.96827110 5629 RIGIDSPHERE 2 (LCS 4) 1 05398U 71067E 26159.77114529 .00000665 00000+0 21094-3 0 9990 2 05398 87.6212 341.1481 0057577 260.4816 98.9873 14.37858141872679 COSMOS 2493 (SKRL-756 1) 1 39490U 13078A 26159.75848552 .00003022 00000+0 22771-3 0 9999 2 39490 82.4123 269.4319 0011405 272.1188 87.8731 15.02116948676696 COSMOS 2494 (SKRL-756 2) 1 39491U 13078B 26159.77158666 .00003425 00000+0 24011-3 0 9998 2 39491 82.4126 258.8434 0015399 229.4794 130.5092 15.04821737677546